Location: Atbuku
(36.4936°N, 30.4362°E)
Time: 17:01:49
(UTC+00:00)

BREEZE M DEB (TANK) - Pass Details

Date: 11 December 2025
Orbit: 330 x 15636 km, 49.4° (Epoch: 15 January)

Event Time Altitude Azimuth Distance (km) Brightness Sun altitude
Rises 15:34:18 0° 302° (WNW) 7,306 8.6 -10.2°
Reaches altitude 10° 15:41:16 10° 307° (NW) 4,419 7.3 -11.5°
Maximum altitude 15:49:45 52° 23° (NNE) 893 3.1 -13.1°
Enters shadow 15:51:53 20° 94° (E) 1,234 3.6 -13.5°
